OYPAT EKRK-EKRK

Flight info

Callsign OYPAT
Flight time 0h 20m
Altitude 3000
Route LOCAL VFR
Aircraft C172/L-V/N

Departure

Time 2026-05-04 19:38
Airport Copenhagen Roskilde Airport (EKRK)

Arrival

Time 2026-05-04 19:59
Airport Copenhagen Roskilde Airport (EKRK)
Time Latitude Longitude Altitude Speed Heading
2026-05-04 19:38 55.61447 11.94498 1075 ft 120 kts 265°
2026-05-04 19:38 55.61340 11.93062 1063 ft 114 kts 262°
2026-05-04 19:39 55.60975 11.91936 1048 ft 107 kts 216°
2026-05-04 19:39 55.60277 11.91991 1055 ft 104 kts 153°
2026-05-04 19:39 55.59657 11.92575 1054 ft 99 kts 155°
2026-05-04 19:39 55.59068 11.93146 1053 ft 95 kts 155°
2026-05-04 19:40 55.58498 11.93698 1058 ft 91 kts 155°
2026-05-04 19:40 55.57948 11.94239 1058 ft 91 kts 154°
2026-05-04 19:40 55.57634 11.95161 1069 ft 93 kts 86°
2026-05-04 19:40 55.57918 11.96143 1071 ft 91 kts 37°
2026-05-04 19:41 55.58481 11.96596 1101 ft 88 kts 358°
2026-05-04 19:41 55.59004 11.96043 1067 ft 94 kts 319°
2026-05-04 19:41 55.59608 11.95615 1050 ft 100 kts
2026-05-04 19:41 55.60210 11.96252 1062 ft 100 kts 30°
2026-05-04 19:42 55.60807 11.96959 1026 ft 104 kts 30°
2026-05-04 19:42 55.61325 11.97841 1015 ft 106 kts 58°
2026-05-04 19:42 55.61809 11.98645 1024 ft 97 kts 346°
2026-05-04 19:42 55.61799 11.97853 983 ft 101 kts 184°
2026-05-04 19:43 55.61539 11.98797 974 ft 104 kts 64°
2026-05-04 19:43 55.61844 11.99953 966 ft 106 kts 67°
2026-05-04 19:43 55.61888 12.01211 1093 ft 91 kts 72°
2026-05-04 19:43 55.62318 12.02031 1063 ft 97 kts 22°
2026-05-04 19:44 55.62926 12.02561 1068 ft 97 kts 15°
2026-05-04 19:44 55.63582 12.02798 1062 ft 95 kts 352°
2026-05-04 19:44 55.64238 12.02740 1064 ft 94 kts 354°
2026-05-04 19:44 55.64897 12.02694 1059 ft 94 kts 354°
2026-05-04 19:45 55.65550 12.02602 1055 ft 93 kts 343°
2026-05-04 19:45 55.66159 12.02281 1055 ft 90 kts 341°
2026-05-04 19:45 55.66664 12.01806 1088 ft 80 kts 293°
2026-05-04 19:45 55.66383 12.01077 1045 ft 91 kts 184°
2026-05-04 19:46 55.66071 12.01882 1011 ft 93 kts 64°
2026-05-04 19:46 55.66582 12.02402 973 ft 92 kts 24°
2026-05-04 19:46 55.66912 12.03340 912 ft 103 kts 108°
2026-05-04 19:46 55.66399 12.03631 935 ft 86 kts 235°
2026-05-04 19:47 55.66416 12.02629 917 ft 84 kts 283°
2026-05-04 19:47 55.66509 12.01658 979 ft 74 kts 273°
2026-05-04 19:47 55.66555 12.00827 1040 ft 63 kts 293°
2026-05-04 19:47 55.66958 12.00686 1120 ft 62 kts 360°
2026-05-04 19:48 55.67441 12.00738 1139 ft 83 kts 12°
2026-05-04 19:48 55.68019 12.00834 1123 ft 88 kts
2026-05-04 19:48 55.68660 12.01013 1021 ft 101 kts 22°
2026-05-04 19:48 55.69060 12.02008 996 ft 103 kts 83°
2026-05-04 19:49 55.69021 12.03278 1000 ft 100 kts 76°
2026-05-04 19:49 55.69154 12.04471 1011 ft 97 kts 80°
2026-05-04 19:49 55.69259 12.05599 1059 ft 92 kts 82°
2026-05-04 19:49 55.68995 12.06587 1072 ft 90 kts 137°
2026-05-04 19:50 55.68563 12.07406 1076 ft 91 kts 136°
2026-05-04 19:50 55.68122 12.08230 1083 ft 93 kts 136°
2026-05-04 19:50 55.67678 12.09066 1083 ft 93 kts 136°
2026-05-04 19:50 55.67236 12.09895 1083 ft 94 kts 136°
2026-05-04 19:51 55.66779 12.10754 1084 ft 97 kts 136°
2026-05-04 19:51 55.66310 12.11631 1083 ft 98 kts 136°
2026-05-04 19:51 55.65842 12.12521 1083 ft 99 kts 136°
2026-05-04 19:51 55.65376 12.13414 1082 ft 99 kts 136°
2026-05-04 19:52 55.64911 12.14295 1072 ft 95 kts 136°
2026-05-04 19:52 55.64485 12.15100 1058 ft 84 kts 136°
2026-05-04 19:52 55.64119 12.15807 1026 ft 75 kts 136°
2026-05-04 19:52 55.63794 12.16453 946 ft 69 kts 134°
2026-05-04 19:53 55.63439 12.17102 934 ft 78 kts 137°
2026-05-04 19:53 55.63045 12.17795 1076 ft 76 kts 141°
2026-05-04 19:53 55.62657 12.18450 1082 ft 86 kts 141°
2026-05-04 19:53 55.62217 12.19225 1051 ft 92 kts 133°
2026-05-04 19:54 55.61776 12.20097 884 ft 92 kts 136°
2026-05-04 19:54 55.61364 12.20856 818 ft 82 kts 138°
2026-05-04 19:54 55.60890 12.21435 747 ft 82 kts 153°
2026-05-04 19:54 55.60416 12.21940 727 ft 79 kts 151°
2026-05-04 19:55 55.59940 12.22389 690 ft 77 kts 163°
2026-05-04 19:55 55.59615 12.22622 665 ft 77 kts 163°
2026-05-04 19:55 55.59107 12.22867 660 ft 74 kts 177°
2026-05-04 19:55 55.58445 12.22792 714 ft 73 kts 199°
2026-05-04 19:56 55.57936 12.22617 712 ft 78 kts 197°
2026-05-04 19:56 55.57430 12.22352 794 ft 74 kts 208°
2026-05-04 19:56 55.57105 12.22112 820 ft 75 kts 207°
2026-05-04 19:56 55.56655 12.21756 839 ft 70 kts 218°
2026-05-04 19:57 55.56414 12.21060 837 ft 69 kts 267°
2026-05-04 19:57 55.56567 12.20229 801 ft 75 kts 298°
2026-05-04 19:57 55.56818 12.19405 735 ft 76 kts 295°
2026-05-04 19:57 55.57039 12.18598 616 ft 71 kts 295°
2026-05-04 19:58 55.57249 12.17780 526 ft 73 kts 295°
2026-05-04 19:58 55.57487 12.16976 421 ft 74 kts 295°
2026-05-04 19:58 55.57700 12.16179 365 ft 70 kts 297°
2026-05-04 19:58 55.57919 12.15412 293 ft 71 kts 296°
2026-05-04 19:59 55.58139 12.14623 225 ft 72 kts 296°
2026-05-04 19:59 55.58358 12.13836 149 ft 70 kts 297°
2026-05-04 19:59 55.58538 12.13201 138 ft 36 kts 297°
2026-05-04 19:59 55.58618 12.12919 137 ft 15 kts 315°
2026-05-04 20:00 55.58683 12.12949 137 ft 0 kts 32°
2026-05-04 20:04 55.58691 12.12957 137 ft 7 kts 31°
2026-05-04 20:04 55.58786 12.13054 137 ft 21 kts 25°
2026-05-04 20:04 55.58896 12.13115 137 ft 13 kts 291°
2026-05-04 20:05 55.58928 12.12986 137 ft 11 kts 296°
2026-05-04 20:05 55.58964 12.12859 137 ft 10 kts 296°
2026-05-04 20:05 55.58994 12.12763 137 ft 8 kts 340°
2026-05-04 20:05 55.59027 12.12790 137 ft 4 kts 94°
2026-05-04 20:06 55.59023 12.12805 137 ft 0 kts 118°